Location: Maccacari
(45.1333°N, 11.1333°E)
Time: 14:59:33
(UTC+00:00)

Vanguard 3 - Visible Passes

Search period start: 25 January 2021 00:00
Search period end: 04 February 2021 00:00
Orbit: 508 x 3261 km, 33.3° (Epoch: 24 January)

Date Brightness Start Highest point End Pass type
(mag) Time Alt. Az. Time Alt. Az. Time Alt. Az.
25 Jan 9.2 03:05:17 32° SSE 03:05:17 32° SSE 03:14:21 10° ESE visible
25 Jan 9.6 05:09:51 14° WSW 05:17:01 43° S 05:30:30 10° ESE visible
26 Jan 10.2 01:55:25 14° ESE 01:55:25 14° ESE 01:57:22 10° ESE visible
26 Jan 8.9 03:59:58 33° SSW 04:02:29 40° S 04:13:33 10° ESE visible
26 Jan 9.9 06:06:25 10° WSW 06:15:06 38° S 06:28:57 10° SE visible
27 Jan 9.4 02:50:05 29° SE 02:50:05 29° SE 02:56:45 10° ESE visible
27 Jan 9.3 04:54:39 18° WSW 05:00:14 39° S 05:12:23 10° ESE visible
28 Jan 8.8 03:44:45 35° S 03:45:52 37° S 03:55:44 10° ESE visible
28 Jan 9.8 05:50:27 10° WSW 05:58:13 33° SSW 06:10:31 10° SE visible
29 Jan 9.6 02:34:52 23° SE 02:34:52 23° SE 02:39:17 10° ESE visible
29 Jan 9.1 04:39:26 22° SW 04:43:34 35° S 04:54:17 10° SE visible
30 Jan 8.9 03:29:33 33° S 03:29:33 33° S 03:37:59 10° ESE visible
30 Jan 9.7 05:34:37 10° WSW 05:41:29 28° SSW 05:52:02 10° SE visible
31 Jan 9.9 02:19:41 17° ESE 02:19:41 17° ESE 02:21:54 10° ESE visible
31 Jan 9.0 04:24:14 24° SW 04:27:00 30° S 04:36:12 10° SE visible
01 Feb 9.2 03:14:23 27° SSE 03:14:23 27° SSE 03:20:19 10° ESE visible
01 Feb 9.6 05:18:58 10° WSW 05:24:51 23° SSW 05:33:28 10° SSE visible
02 Feb 10.3 02:04:32 10° ESE 02:04:32 10° ESE 02:04:39 10° ESE visible
02 Feb 9.0 04:09:06 24° SSW 04:10:31 25° S 04:18:09 10° SE visible
03 Feb 9.5 02:59:16 20° SSE 02:59:16 20° SSE 03:02:44 10° SE visible
03 Feb 9.6 05:03:50 11° SW 05:08:18 18° SSW 05:14:46 10° SSE visible
